GFSNW_sfc_thetae_084.txt.gz
Theta_e
308 308 308 309 307 305 301 295 292 307 311 297 296 293 298 301 300 302 299 298 294 291 292 290 291 291 294 299 297 291 292 288 284 288 295 297 292 289 287 280 281 284 283 281
308 308 308 309 307 306 297 295 295 306 307 292 291 296 297 300 299 298 298 297 296 295 291 287 293 295 300 299 296 293 292 285 280 283 287 290 288 290 290 288 285 279 278 280
308 308 308 308 307 306 299 293 291 299 300 299 293 292 294 294 301 299 299 296 296 293 291 293 290 291 297 297 296 303 296 287 284 280 283 286 285 288 288 285 276 281 282 285
309 308 308 308 306 306 302 298 293 296 290 292 293 294 294 294 294 298 298 294 294 291 287 289 289 291 292 295 297 292 290 284 286 288 290 289 288 287 287 284 285 282 285 286
309 307 307 308 306 305 302 296 294 295 293 295 293 293 292 293 294 293 293 292 294 294 289 289 287 288 288 288 291 288 286 281 284 283 289 289 286 287 288 288 288 288 290 288
310 307 307 307 306 305 298 300 301 296 293 293 291 291 293 294 295 295 296 295 293 291 293 293 292 291 291 290 287 286 284 281 280 277 285 286 281 286 289 290 293 292 287 292
310 308 307 305 306 304 299 298 297 293 289 292 292 294 294 294 295 290 295 297 293 295 297 294 293 290 290 289 289 288 284 282 281 278 280 273 284 295 295 292 293 294 293 293
310 308 307 304 304 305 300 300 297 294 288 292 291 293 293 295 294 292 293 296 297 297 292 287 285 287 288 290 289 287 287 283 278 275 272 282 288 293 292 290 290 295 293 295
311 309 307 304 304 304 301 300 301 296 289 289 294 291 292 290 288 290 294 298 298 294 289 287 283 282 288 288 291 296 291 289 283 275 274 271 288 295 299 297 285 295 294 292
311 311 307 306 305 304 302 299 301 296 290 292 292 290 291 294 291 288 291 292 292 294 287 285 283 284 291 284 286 286 286 287 283 281 281 283 293 294 298 283 283 294 295 293
311 311 309 306 306 305 302 299 301 297 291 292 293 294 292 293 292 287 291 289 292 290 286 287 286 284 287 285 289 288 284 283 283 283 282 276 295 293 286 291 295 295 294 293
310 311 310 307 307 305 304 296 302 302 293 292 294 296 297 297 297 293 292 289 289 294 288 288 287 283 285 284 278 291 283 288 286 286 282 291 292 293 295 294 293 294 294 295
310 310 311 309 307 305 304 298 300 298 292 291 291 291 297 299 298 299 289 292 296 293 295 290 287 283 286 279 283 285 289 293 287 285 290 290 292 294 295 296 296 296 298 295
309 310 310 309 308 305 305 298 300 297 293 286 288 297 296 302 301 299 298 295 298 297 294 289 286 283 289 285 286 285 289 290 286 286 289 291 294 294 295 296 298 295 296 294
309 310 310 309 307 305 303 301 300 300 293 287 287 292 294 296 297 297 298 296 295 291 288 287 284 288 288 288 287 285 292 287 284 281 288 288 291 295 296 296 297 296 295 294
310 311 310 308 306 304 298 293 299 300 299 289 283 289 292 297 297 298 297 298 294 292 291 290 291 291 289 283 283 293 293 294 293 288 291 293 294 296 298 297 297 299 296 295
309 310 309 306 305 300 294 292 298 301 299 289 284 284 294 299 296 296 296 296 295 293 292 289 287 289 293 290 285 290 291 291 290 292 294 291 294 292 296 297 299 299 296 296
309 309 306 305 304 300 295 298 302 300 294 292 284 285 290 297 292 292 298 293 293 292 291 290 287 290 289 286 291 292 290 290 292 294 294 294 295 296 297 299 298 296 294 294
307 305 304 299 296 293 294 303 303 301 294 286 286 283 284 298 294 297 296 296 288 294 288 289 291 288 286 288 292 287 291 291 291 294 294 293 294 295 297 296 297 295 293 293
303 299 294 289 293 301 302 295 290 290 290 289 285 290 286 293 292 292 293 294 290 286 289 293 288 289 293 294 292 291 294 294 293 291 290 292 294 294 295 295 296 296 294 294
296 292 291 297 302 297 292 287 285 286 283 286 287 287 286 294 288 289 294 288 291 285 287 287 287 287 290 294 293 294 295 294 294 294 295 296 295 294 294 295 296 296 296 294
296 295 298 296 292 289 286 285 286 284 281 287 286 288 290 291 295 291 290 287 288 282 292 288 285 288 291 292 293 294 294 294 294 296 295 296 296 295 294 295 295 295 296 295
298 293 289 289 287 282 281 280 284 285 288 290 291 288 290 290 293 289 288 286 282 292 287 286 288 290 292 293 293 293 294 295 294 294 295 295 294 295 294 294 295 295 295 294
289 288 281 284 283 283 285 285 287 291 294 293 294 292 290 290 287 289 286 290 292 285 284 283 288 290 292 294 294 293 293 294 294 294 293 293 293 293 293 294 294 294 294 294
289 289 283 283 288 291 292 293 291 294 296 296 293 292 290 288 287 289 288 286 283 282 283 286 287 291 293 292 293 294 293 294 294 292 291 293 294 292 292 293 293 294 294 293
291 289 286 288 290 289 290 292 293 296 295 296 295 290 287 286 285 283 283 281 277 284 288 289 290 291 290 291 291 292 294 293 291 290 291 293 292 292 291 292 292 293 294 291
288 287 289 289 290 291 293 294 295 298 295 289 291 287 287 287 280 280 281 281 282 286 285 287 288 287 288 289 290 292 295 292 290 290 292 291 293 292 291 289 291 292 293 291

GFSNW_sfc_thetae_087.txt.gz
Theta_e
309 308 308 308 307 305 301 294 291 302 306 296 295 292 297 299 299 301 299 298 294 291 292 289 290 291 294 297 296 290 291 287 283 287 293 294 291 289 287 278 278 285 281 280
310 308 307 308 307 306 297 291 291 302 304 290 289 294 295 298 298 298 297 295 296 295 291 287 292 294 298 296 294 292 291 284 279 282 286 289 287 289 288 286 285 280 274 280
310 308 307 308 307 306 296 292 288 295 296 295 290 290 292 293 301 299 298 296 296 293 290 293 289 291 296 297 295 300 295 287 284 281 284 286 286 288 288 284 275 279 281 283
311 309 307 308 306 306 299 297 293 294 286 292 291 294 292 291 292 298 297 294 294 292 286 289 289 292 292 295 297 292 289 284 286 287 288 289 288 287 287 283 284 279 283 283
311 309 306 307 306 305 298 295 294 296 293 294 290 291 291 291 294 293 291 291 293 293 289 290 288 290 288 288 292 287 285 280 282 282 285 286 285 287 286 286 286 285 286 287
311 310 306 306 306 304 295 299 300 295 293 292 291 291 292 293 294 295 295 294 292 291 293 295 294 291 291 291 289 286 283 280 279 278 284 285 280 284 286 288 291 290 285 289
311 310 307 306 305 304 299 298 297 292 288 291 290 292 294 292 293 293 296 295 292 296 298 296 292 290 290 290 289 289 283 282 281 278 280 273 283 294 294 291 292 292 292 294
311 311 309 306 306 305 300 299 297 294 288 291 290 291 291 294 293 292 292 294 298 299 294 286 284 287 288 289 288 287 287 282 277 275 273 281 286 292 290 288 288 294 293 293
311 311 310 307 304 305 302 300 301 297 290 287 293 289 290 287 289 289 293 297 298 297 289 286 282 281 287 287 290 292 288 289 280 274 275 272 283 293 295 295 282 294 293 292
311 312 311 308 305 305 302 300 302 296 290 292 293 289 289 293 292 288 291 291 292 295 287 284 282 283 290 282 285 287 287 286 280 280 280 282 291 294 297 283 281 291 292 292
311 311 312 309 307 306 302 300 302 297 291 292 295 294 290 292 292 287 291 289 291 290 286 286 286 285 287 285 288 288 285 284 282 284 281 276 293 292 286 289 291 292 293 294
310 311 311 311 308 306 305 297 302 301 294 293 296 296 296 295 295 293 292 289 289 292 289 288 286 284 285 284 279 291 283 287 282 286 281 289 291 291 293 292 292 292 294 296
309 310 311 311 309 307 305 299 299 298 293 292 292 290 295 297 297 299 290 291 294 294 295 290 287 283 286 279 283 285 288 291 286 285 288 289 291 292 293 294 292 296 297 297
309 310 310 310 310 308 305 299 300 297 293 286 287 295 293 298 298 297 297 296 297 297 296 291 287 283 289 284 286 284 287 289 285 285 287 289 291 293 293 294 296 297 298 298
309 310 310 311 310 308 304 301 300 300 293 287 288 292 293 294 295 298 297 295 294 291 290 288 285 287 287 287 286 284 289 289 284 280 287 286 289 292 294 293 294 296 296 296
309 311 311 311 309 305 299 293 299 301 299 289 284 288 289 292 295 295 296 296 294 294 291 290 290 291 288 282 281 289 293 294 293 290 289 291 293 294 295 295 295 297 297 297
309 310 310 309 305 300 294 292 297 301 299 289 284 284 290 297 296 296 296 297 295 293 292 289 288 288 292 289 284 288 290 289 289 291 293 291 293 292 294 295 297 299 298 298
309 309 308 306 303 301 296 299 302 300 294 291 284 283 288 297 292 291 296 292 293 293 292 290 288 288 286 283 286 291 289 289 290 293 294 294 294 294 295 298 296 295 295 295
308 306 304 300 297 293 295 303 303 300 294 286 285 282 281 297 295 295 295 295 288 294 289 289 290 287 286 286 290 290 291 291 291 293 294 294 294 294 295 295 294 293 293 294
303 299 294 290 294 302 302 296 291 290 291 288 284 288 284 291 290 292 292 293 289 286 289 292 287 287 292 293 292 292 293 294 293 291 290 292 292 293 293 293 293 294 293 293
296 292 291 297 302 296 292 287 285 286 282 286 285 287 285 294 286 287 293 288 290 285 287 287 286 287 290 293 293 294 294 294 294 294 295 294 293 293 292 292 293 293 293 292
296 295 298 296 292 289 285 284 286 284 279 285 285 287 288 290 293 288 291 288 289 282 290 287 284 288 291 292 292 293 294 294 294 295 294 293 293 293 293 292 292 293 293 293
298 293 289 288 287 282 280 279 283 284 286 289 290 288 289 289 291 289 288 285 282 291 286 284 287 290 292 293 293 293 294 295 294 292 292 293 294 294 293 292 293 293 292 293
289 287 281 283 282 282 284 284 286 290 293 293 293 291 287 289 287 288 285 289 290 284 283 282 287 290 292 294 294 293 293 293 291 291 291 292 293 292 292 292 292 292 291 291
288 288 282 282 285 289 290 291 291 294 296 294 293 291 290 287 286 288 287 285 285 281 283 285 286 290 292 291 292 292 292 290 290 290 290 291 292 291 291 292 292 292 292 290
291 288 286 286 288 289 289 291 292 296 294 296 294 289 287 285 283 283 283 280 276 278 281 286 287 290 287 287 289 292 293 290 289 288 291 292 292 291 290 292 291 292 292 289
287 286 290 286 289 291 292 294 294 298 295 290 291 287 284 286 280 279 280 277 280 284 285 286 287 286 287 288 290 293 293 290 289 288 289 290 291 291 291 289 290 291 291 289

GFSNW_sfc_thetae_093.txt.gz
Theta_e
312 311 311 309 307 305 303 299 298 308 308 302 297 295 295 297 299 302 299 299 297 294 293 291 291 291 295 300 298 293 297 293 288 290 297 296 295 293 293 289 286 288 286 286
312 311 310 309 306 305 301 297 297 307 307 294 293 296 296 297 297 299 298 297 299 298 293 289 293 294 299 300 297 294 295 290 285 287 291 293 292 294 294 292 292 287 284 287
312 311 310 308 306 305 303 299 294 299 300 298 294 292 293 293 298 298 299 297 298 295 292 294 291 292 296 298 298 300 299 292 288 285 288 291 288 291 293 292 287 288 288 290
312 312 310 308 306 305 304 300 294 295 290 292 293 293 293 291 291 297 298 294 295 294 290 291 291 293 294 297 299 297 294 288 290 290 291 290 289 289 290 289 290 287 289 289
312 311 310 308 305 305 304 298 295 296 293 293 292 292 291 290 292 293 292 291 294 293 290 291 289 291 291 291 294 292 294 287 289 286 289 288 285 287 288 289 290 290 290 288
312 311 311 308 305 305 302 302 301 297 292 292 290 291 291 291 292 293 296 294 292 290 292 295 296 297 296 293 290 289 289 287 286 281 286 286 283 287 288 288 289 289 286 292
312 312 311 309 305 305 303 301 300 294 290 292 291 292 292 290 291 289 294 295 292 295 300 297 297 296 295 295 293 293 289 287 287 282 284 276 288 296 295 291 293 296 296 298
311 311 311 310 306 305 303 302 299 295 289 292 291 292 292 292 293 292 291 294 297 298 294 289 288 289 289 290 293 292 293 288 284 281 281 285 288 292 292 291 291 297 296 297
308 311 311 311 308 306 303 301 303 298 291 290 294 291 292 288 288 290 293 297 299 298 292 288 283 283 285 286 288 290 290 290 286 282 279 278 288 294 298 297 287 296 296 296
306 307 310 312 310 306 304 301 304 298 292 294 295 290 290 292 290 289 291 292 292 296 288 285 285 284 289 284 286 285 284 284 282 282 281 285 293 296 297 285 288 296 296 296
305 305 307 309 311 307 303 302 304 299 293 294 296 296 293 292 291 287 291 289 290 289 286 287 288 286 288 286 289 288 288 282 282 283 280 280 297 295 289 294 298 297 297 297
305 305 306 307 309 308 305 298 303 303 295 294 299 299 300 298 297 292 291 290 290 290 288 288 289 287 288 287 283 293 287 291 288 289 289 294 297 297 299 298 297 297 296 297
305 306 307 307 309 310 305 300 301 299 294 293 294 294 300 302 301 301 289 292 294 292 295 289 290 286 290 285 286 288 292 295 291 291 293 294 296 297 298 298 297 297 298 298
306 307 307 308 309 310 307 300 301 299 294 287 292 298 296 300 300 300 299 297 298 297 294 289 288 287 293 288 289 288 292 292 291 291 294 295 295 297 297 297 296 295 297 296
306 308 308 308 309 310 307 302 302 302 294 288 290 296 297 298 298 297 298 296 294 292 288 288 288 292 291 291 290 289 293 291 291 289 292 292 294 297 298 296 295 296 296 296
307 308 308 309 309 309 301 294 300 302 300 290 286 295 294 295 295 294 294 296 294 291 289 289 291 295 292 287 286 292 295 294 294 292 294 294 296 298 299 297 296 297 297 297
306 308 308 308 308 304 297 294 300 303 301 290 286 287 293 295 297 295 294 295 295 293 291 290 291 292 293 289 286 292 295 295 295 295 295 293 295 294 298 297 297 297 297 296
307 307 307 308 304 302 297 300 303 302 295 292 284 285 288 297 294 292 296 292 293 293 292 292 290 292 291 287 292 293 293 293 293 294 296 295 297 297 296 296 295 294 294 294
307 307 305 301 298 294 296 304 303 301 296 286 285 283 284 297 293 294 294 295 288 295 290 290 290 289 287 291 292 292 292 292 292 294 295 296 294 294 293 294 294 293 293 293
305 300 296 291 295 304 304 296 291 291 291 290 284 290 285 292 292 290 290 293 289 287 290 292 288 287 293 294 294 294 294 294 294 292 292 293 293 292 293 294 294 293 292 292
298 293 290 296 303 297 292 287 286 286 283 287 286 286 284 292 286 287 290 287 288 285 288 287 286 286 291 293 293 295 295 295 295 296 296 295 294 292 293 293 293 293 293 291
297 295 297 297 292 289 285 284 286 283 282 286 286 287 288 290 292 289 290 287 288 284 291 287 285 290 292 293 293 294 295 295 295 296 294 294 294 295 293 293 292 292 293 292
296 292 289 289 287 282 280 279 282 284 287 288 288 287 289 289 290 288 287 286 286 292 286 284 288 291 293 293 294 294 295 296 294 293 294 294 294 294 293 292 293 293 292 291
289 286 282 284 282 284 285 285 287 290 291 291 291 289 287 289 286 288 286 290 290 284 283 285 289 293 293 294 295 293 293 294 293 292 293 293 293 293 294 293 293 292 291 290
287 288 283 283 288 290 290 291 291 293 295 293 291 291 291 288 288 290 289 286 284 286 286 290 294 294 293 293 293 294 294 293 292 292 292 292 293 293 293 293 293 292 290 288
289 288 286 289 288 288 289 291 291 294 294 294 292 288 288 287 288 286 285 284 284 288 292 293 294 294 293 294 294 295 294 293 293 292 292 293 292 292 292 293 292 291 289 287
287 287 291 290 290 290 293 292 292 296 293 288 290 286 286 289 286 285 288 287 290 292 292 294 294 294 294 295 295 294 293 292 292 292 292 292 293 293 291 290 290 289 288 287

GFSNW_sfc_thetae_096.txt.gz
Theta_e
312 312 312 310 308 304 308 311 305 314 318 308 309 304 300 299 301 304 302 302 300 299 298 297 295 295 299 302 301 295 298 294 292 295 302 301 299 296 297 293 290 293 291 291
312 312 311 310 307 305 308 306 307 316 315 302 303 303 300 301 300 301 301 299 301 301 298 293 296 298 301 302 300 295 296 292 288 291 297 299 295 297 298 297 295 291 288 291
312 312 311 310 307 305 308 306 302 307 308 306 301 298 299 297 301 300 301 300 301 298 294 297 295 295 299 300 299 301 298 293 292 287 292 295 292 294 296 295 290 291 290 294
312 312 311 310 307 305 308 305 300 301 299 299 299 299 297 294 293 299 300 297 297 295 291 293 293 295 297 300 301 299 294 288 293 294 295 294 293 293 293 291 293 289 293 294
312 312 311 310 306 304 309 302 301 303 300 297 297 295 295 292 293 293 293 293 295 296 291 292 290 293 294 292 298 297 296 288 292 290 293 293 290 292 291 292 292 292 293 293
312 312 311 311 306 305 308 308 308 303 296 295 296 296 294 293 295 296 297 295 293 293 295 297 298 300 299 296 293 292 292 291 289 286 291 289 286 290 291 292 294 293 289 295
310 311 311 311 306 305 308 306 306 300 295 295 293 294 294 292 293 291 296 297 294 298 301 302 301 300 297 296 296 295 289 290 289 286 288 279 291 298 297 295 295 296 297 298
308 309 311 311 308 304 308 306 305 299 294 296 295 294 293 294 295 294 296 297 300 300 295 291 290 293 294 295 297 295 291 288 286 285 284 288 291 294 295 294 295 299 299 300
307 306 308 311 310 306 306 306 308 304 296 295 298 296 296 293 292 293 294 299 302 299 294 289 284 284 289 289 288 294 293 291 288 287 281 280 292 297 301 300 290 301 300 299
306 305 306 308 310 307 306 304 308 303 295 300 299 294 293 296 294 290 293 294 295 297 291 285 286 287 292 287 287 285 286 286 284 284 284 289 296 299 300 287 292 301 301 301
305 305 305 306 307 309 304 303 306 301 296 299 300 299 295 294 293 288 293 292 292 290 287 287 290 289 290 288 290 289 287 285 285 286 283 281 299 298 292 299 303 302 302 301
305 305 305 305 307 308 306 300 304 305 297 297 304 304 304 301 299 294 293 293 292 292 289 289 290 289 291 289 286 295 288 292 289 289 291 298 302 301 304 304 301 301 301 301
305 305 306 307 307 308 307 303 302 300 295 295 298 298 305 307 305 305 292 293 295 294 298 292 290 288 293 287 289 290 294 297 293 293 297 298 301 302 303 303 302 303 302 299
305 305 306 307 308 309 308 301 303 301 296 290 297 304 301 304 306 305 303 300 299 299 296 289 289 288 295 291 293 291 294 295 293 293 297 299 300 301 303 302 303 300 301 300
305 306 307 308 308 308 309 305 304 305 298 290 293 301 304 303 304 301 301 299 297 293 289 288 288 293 294 295 294 292 297 293 291 291 297 297 298 302 302 299 297 298 297 297
305 306 307 308 308 308 302 295 301 303 302 291 289 300 299 301 300 299 298 298 297 293 290 290 293 297 293 289 289 296 297 299 298 297 300 300 301 302 301 298 298 300 299 300
305 306 307 307 307 307 299 296 304 304 303 292 289 293 298 299 300 300 297 298 294 293 290 290 292 294 294 291 288 294 298 299 300 300 298 297 299 295 299 300 300 300 299 300
305 306 307 307 305 302 298 303 304 304 297 295 287 291 294 300 295 294 298 292 292 291 291 293 291 293 293 288 295 297 297 296 297 297 299 299 298 300 300 299 298 297 298 297
305 306 305 303 300 296 297 305 302 302 297 291 288 286 290 299 297 295 293 295 288 295 290 291 293 290 288 293 295 295 296 296 295 298 298 297 298 297 296 297 297 297 295 295
305 303 297 291 297 305 303 296 292 292 292 293 287 292 288 296 294 293 289 293 291 288 291 293 287 289 296 297 298 296 298 297 298 295 295 296 296 294 296 296 298 296 295 295
300 294 290 297 303 296 292 288 288 288 286 289 289 290 288 296 288 290 294 288 289 287 289 289 289 291 294 295 294 297 296 297 297 299 299 298 297 296 296 297 296 295 295 293
298 296 299 297 292 290 288 287 288 286 286 291 291 291 291 292 295 289 291 288 288 285 293 289 287 291 296 294 295 296 297 297 298 298 296 298 298 298 297 297 295 296 295 293
297 292 289 290 288 284 284 282 285 286 291 292 291 289 290 291 291 289 288 286 289 295 289 289 292 294 296 296 297 296 297 298 297 296 297 297 297 298 297 296 296 296 293 292
290 288 284 286 284 287 290 291 292 294 293 292 292 289 288 290 288 289 286 292 293 287 285 285 291 294 296 297 298 296 296 297 296 295 296 296 297 296 297 296 296 294 291 290
289 289 285 287 294 295 297 297 295 294 295 293 292 292 290 289 288 292 291 288 286 288 289 294 295 298 297 298 297 297 297 296 296 296 296 296 296 296 295 296 296 293 291 289
290 288 288 293 292 293 295 296 294 295 294 295 292 289 288 288 290 288 287 287 286 292 297 298 298 297 297 297 298 297 296 296 295 295 296 297 296 295 295 296 294 293 290 288
289 289 293 295 296 296 297 299 297 297 293 289 290 287 287 292 289 286 293 290 295 297 298 299 299 298 298 298 296 295 295 295 295 296 297 296 296 296 295 292 293 293 290 289

GFSNW_sfc_thetae_102.txt.gz
Theta_e
312 312 312 312 310 307 308 314 307 320 322 308 310 304 306 300 304 307 305 304 302 301 301 299 298 298 301 305 305 300 303 299 293 295 302 304 303 300 299 292 291 295 293 292
311 312 312 312 311 308 305 308 309 320 319 301 305 307 305 305 303 304 303 302 303 304 300 296 299 299 304 304 303 301 302 296 290 292 298 301 298 300 300 299 297 292 289 292
311 311 312 311 310 309 307 308 303 310 311 310 305 303 301 302 306 302 303 302 303 301 299 301 297 298 302 304 303 305 303 297 292 287 292 296 294 297 299 296 291 292 293 295
310 311 311 311 310 309 307 309 305 307 301 304 304 303 301 299 298 303 303 300 300 299 295 297 297 299 300 302 303 303 301 290 293 294 295 295 295 294 295 294 296 291 295 294
309 310 310 311 311 308 307 303 303 306 302 304 302 298 299 298 299 298 298 298 299 299 295 296 293 296 297 296 301 298 301 290 293 291 294 294 292 294 295 296 296 296 297 296
309 309 309 310 311 308 308 309 311 304 301 302 299 301 300 299 299 300 301 299 297 296 298 301 301 302 301 300 297 296 295 291 291 286 293 292 289 295 296 297 298 297 293 298
308 308 309 309 310 310 309 309 306 301 296 300 300 299 299 298 299 297 300 300 298 301 306 304 303 301 300 300 299 299 293 291 290 286 289 281 293 300 300 297 298 299 299 300
308 308 308 308 309 311 310 310 306 302 296 299 300 299 299 299 299 298 299 300 303 305 301 295 293 295 296 298 299 298 299 295 286 283 285 290 293 297 296 296 295 301 300 301
307 308 308 307 308 309 309 311 312 305 297 298 301 299 299 296 296 297 299 303 305 302 296 292 287 287 291 292 294 300 298 297 287 286 283 281 294 300 302 300 290 303 302 301
306 307 308 306 306 308 306 308 314 307 298 301 302 298 297 300 297 295 298 298 298 301 293 290 287 288 294 289 289 290 290 288 284 284 284 289 298 301 303 288 292 302 302 302
306 307 307 306 306 306 307 305 311 307 300 301 304 303 299 299 297 292 297 296 296 296 290 290 290 290 294 293 294 292 291 288 286 286 284 283 301 300 293 299 303 303 302 302
305 305 305 305 305 306 308 302 311 308 301 300 307 308 309 306 305 299 298 298 296 298 294 293 293 291 293 292 287 298 290 294 291 292 292 301 302 302 306 305 302 302 302 302
305 305 305 306 306 307 307 307 305 302 296 297 300 301 308 311 310 311 297 297 299 298 302 297 294 289 293 288 290 293 297 299 293 295 298 299 301 304 304 303 303 303 303 302
304 305 305 305 306 307 307 305 305 304 298 290 297 309 306 311 311 309 307 303 303 302 301 293 291 288 296 292 293 292 295 296 295 295 298 300 301 302 302 302 303 302 303 302
304 304 304 305 306 308 308 309 307 308 299 292 295 302 308 308 308 305 305 303 300 295 291 290 288 293 293 295 294 292 297 296 294 293 298 299 299 302 303 301 300 301 300 300
304 305 306 306 307 307 305 298 306 309 305 294 290 305 304 306 307 304 302 302 301 298 291 290 293 297 293 289 289 296 300 300 302 299 301 301 301 302 302 301 302 302 301 301
304 305 306 306 307 306 300 298 303 307 305 293 289 296 303 306 304 302 299 302 300 297 291 289 291 293 295 291 287 295 298 300 301 302 300 297 299 298 302 303 303 303 301 302
306 305 305 306 306 304 301 306 305 305 299 296 288 294 297 304 297 296 301 296 294 292 291 292 293 296 293 288 295 298 300 301 300 300 301 300 301 302 301 302 302 300 299 299
305 305 305 304 302 298 300 306 305 305 299 292 293 292 290 301 299 300 296 294 287 293 289 291 293 291 289 293 297 299 300 298 297 299 300 300 299 299 300 300 299 298 297 297
305 303 298 292 298 306 304 298 294 293 293 293 290 297 291 298 299 295 293 292 289 286 290 296 290 289 296 299 300 300 299 299 299 297 296 297 297 297 298 298 299 298 297 296
303 295 293 298 302 297 293 288 289 290 288 293 294 295 291 300 292 292 296 290 291 287 290 291 289 291 297 301 301 301 300 300 301 301 299 299 298 297 297 298 297 297 296 292
299 297 299 298 293 290 288 288 291 290 289 295 292 293 295 297 299 294 294 289 290 285 293 290 288 295 299 299 298 299 300 300 300 300 298 298 299 299 298 297 297 297 295 292
299 295 291 291 290 285 285 285 288 289 294 296 296 292 296 296 297 294 290 286 287 297 290 289 293 297 297 298 299 299 301 300 300 298 298 299 299 298 298 297 297 296 293 291
292 289 285 287 287 290 293 293 294 298 298 296 296 292 292 293 290 290 286 291 294 288 287 288 294 297 298 298 300 299 298 298 298 297 298 297 296 297 297 297 296 294 292 290
290 291 286 290 296 299 299 300 299 299 299 297 293 291 292 289 288 291 290 289 287 289 286 293 296 298 299 299 299 297 297 297 297 298 297 296 297 296 296 296 295 293 292 289
291 291 290 296 296 296 298 299 296 299 298 296 297 290 288 288 290 289 288 288 287 290 295 297 298 299 300 300 298 297 298 298 298 297 296 297 296 295 295 295 294 293 292 289
290 290 297 296 298 296 298 301 299 301 295 291 291 287 288 294 290 289 294 292 294 297 298 300 301 300 299 298 297 298 299 298 297 297 297 297 297 296 294 293 294 292 292 291

GFSNW_sfc_thetae_105.txt.gz
Theta_e
310 311 311 311 311 308 306 303 302 315 318 302 304 300 304 304 303 306 304 304 301 298 299 296 296 297 299 304 303 296 297 294 289 293 299 301 297 294 296 289 287 288 284 287
309 309 310 310 310 309 304 298 305 317 315 296 299 306 304 306 303 302 302 301 302 301 296 291 297 298 303 303 302 299 297 290 283 287 292 298 295 297 295 296 294 289 287 288
308 309 309 310 310 309 305 300 300 307 308 306 301 301 300 300 305 301 302 301 301 297 294 297 294 297 301 302 303 307 302 292 288 282 288 292 291 294 295 294 288 290 290 291
308 308 309 309 309 309 305 302 302 304 297 300 301 300 299 298 298 302 301 298 299 295 289 292 292 297 297 301 305 300 295 287 290 291 293 293 291 291 292 290 291 287 291 292
309 309 309 309 308 308 303 301 299 301 298 302 300 298 297 297 298 298 297 295 298 296 290 291 289 292 292 292 297 296 299 288 289 288 292 292 290 292 292 293 292 292 292 291
308 308 308 309 309 308 305 306 307 301 299 298 297 297 299 298 298 300 300 297 295 294 295 297 296 296 296 295 292 291 293 291 288 284 290 289 283 289 291 293 295 294 290 293
308 308 309 308 308 309 308 306 304 297 294 297 297 299 299 298 297 294 297 297 293 298 301 299 297 295 296 295 294 296 290 290 288 283 285 276 288 296 296 295 297 298 298 299
307 307 308 308 308 309 308 308 305 300 293 297 297 298 298 298 297 295 296 299 300 300 295 289 287 289 290 293 295 294 293 290 286 282 278 286 289 295 295 292 293 299 297 298
306 306 307 308 307 307 307 307 310 303 295 295 299 297 298 293 292 294 297 300 301 297 291 288 281 281 288 290 293 300 297 295 287 285 280 277 290 298 302 298 287 301 300 298
306 306 307 307 307 307 306 305 310 304 296 299 300 295 295 298 295 291 296 295 293 296 289 285 283 284 292 284 287 288 288 287 285 284 282 286 296 299 303 287 287 300 299 297
306 306 306 306 306 306 305 304 308 304 298 298 301 303 298 297 295 289 294 291 293 292 285 286 287 285 288 288 293 291 288 284 282 284 282 278 300 298 292 296 300 300 298 297
305 305 305 305 305 306 307 301 309 308 300 298 303 303 305 303 303 297 295 294 295 295 289 288 290 287 287 286 280 293 285 290 288 287 285 296 300 298 300 300 299 298 297 297
305 305 305 306 306 306 306 303 305 302 297 295 297 298 305 307 305 306 295 295 297 296 299 292 289 286 288 281 284 288 293 297 292 292 295 298 298 300 301 300 300 301 299 298
304 305 305 305 306 307 307 303 305 302 297 290 293 305 303 308 308 307 305 300 301 299 295 291 289 286 290 285 287 287 290 293 290 290 295 297 300 298 301 301 302 299 299 298
304 304 305 305 305 307 306 305 306 305 298 291 293 298 302 304 306 305 304 300 297 295 290 289 287 290 288 289 290 288 292 291 288 289 295 294 295 298 300 297 297 298 297 296
304 305 305 306 306 307 303 297 306 307 304 294 288 299 301 304 305 303 301 300 299 296 291 290 292 293 291 284 283 291 297 299 298 294 299 296 297 298 298 297 299 301 297 297
304 305 306 306 306 305 298 296 301 307 304 293 288 291 300 305 303 301 298 300 298 296 291 289 289 289 292 289 283 291 294 296 298 300 297 294 295 294 298 299 301 300 298 297
305 306 305 305 306 304 299 305 306 305 297 295 287 289 296 304 296 294 300 294 294 293 291 291 289 291 292 285 290 294 297 299 299 298 296 296 297 297 297 298 297 295 295 295
305 305 306 304 301 297 300 307 306 303 298 290 290 289 287 301 297 296 295 295 287 292 288 289 291 288 285 290 293 296 299 295 295 297 297 296 294 295 295 295 295 293 293 292
305 304 298 292 297 306 304 298 294 292 293 292 288 294 290 298 296 294 291 292 288 285 288 292 289 287 294 296 298 299 298 298 298 295 293 293 292 293 294 294 295 295 292 290
301 295 292 297 303 296 292 288 288 289 287 291 291 292 291 297 290 291 294 287 289 284 288 288 287 287 296 300 299 300 299 299 298 299 296 293 293 293 294 294 295 293 291 289
298 297 299 297 293 290 287 286 289 287 287 293 291 293 295 295 297 292 293 289 288 282 292 288 285 293 297 297 298 298 297 299 298 296 295 295 296 295 295 294 293 292 290 290
299 295 291 289 288 283 283 283 287 288 293 295 293 292 294 294 295 291 288 284 284 294 288 287 291 295 296 297 298 298 299 297 296 295 296 296 295 296 295 293 292 292 290 289
292 288 284 286 285 286 290 290 290 297 296 295 294 292 292 292 289 289 284 289 291 287 285 287 292 295 297 297 299 296 295 295 296 295 295 295 295 294 294 293 292 291 289 289
290 290 285 288 293 297 298 297 297 298 298 295 292 291 292 289 287 289 288 287 286 287 285 290 294 295 297 296 296 295 295 295 295 295 295 294 294 293 293 292 291 291 290 289
291 290 288 293 295 295 297 297 295 298 297 297 295 289 287 287 288 287 287 287 285 287 293 294 296 296 296 295 296 297 297 296 295 295 295 294 293 292 292 290 290 290 290 288
290 288 294 293 294 293 293 296 297 299 295 290 292 286 286 293 288 287 291 287 291 295 295 296 297 296 295 295 296 298 297 296 295 294 294 294 294 294 291 289 289 290 291 289

GFSNW_sfc_thetae_108.txt.gz
Theta_e
308 308 308 309 309 308 304 297 297 313 314 298 299 296 304 305 305 306 303 302 300 297 296 295 294 296 298 303 301 295 295 292 288 292 298 299 294 291 292 286 283 287 280 283
309 307 307 309 309 308 303 293 297 312 311 294 295 303 302 305 305 301 300 300 300 299 295 290 296 297 302 301 301 296 295 287 281 284 292 296 293 294 296 295 293 289 287 288
308 307 308 308 308 308 305 294 294 302 304 303 298 299 299 299 306 302 301 299 299 295 293 294 292 295 300 302 302 306 299 289 285 280 285 290 289 291 291 292 288 289 289 289
308 309 309 308 308 307 305 296 297 300 295 298 297 298 299 297 298 299 299 296 296 294 288 290 290 293 294 300 304 297 292 285 287 289 291 291 290 290 290 288 288 285 288 289
307 308 308 307 307 307 300 297 295 298 298 301 298 296 295 297 297 297 295 293 296 293 289 290 288 290 290 290 296 292 292 285 288 286 291 290 288 290 291 291 290 290 290 290
306 307 308 308 307 306 298 303 302 296 295 297 296 294 297 296 297 297 297 294 292 292 293 294 292 293 294 293 291 289 288 287 284 280 288 287 282 286 288 290 292 291 287 291
306 306 307 308 307 307 305 304 301 294 292 295 294 297 298 296 295 293 296 295 292 296 297 295 293 290 292 292 291 292 287 285 283 279 282 274 286 293 294 293 297 296 297 296
306 306 307 307 307 307 303 305 303 296 289 295 295 296 296 295 296 294 295 297 298 296 294 287 284 286 287 290 292 290 291 286 283 279 275 283 288 294 293 291 291 298 295 297
306 306 306 307 307 307 299 304 304 299 293 292 298 296 295 290 290 292 294 297 298 295 289 285 280 279 287 288 290 295 292 293 287 285 277 276 286 297 301 296 284 298 297 295
306 306 306 307 307 307 300 303 305 299 292 295 296 293 293 295 292 289 291 293 292 293 284 279 280 281 290 282 285 287 288 287 285 285 283 286 293 298 301 284 285 298 298 294
305 306 306 306 306 306 301 299 304 302 294 294 299 300 296 295 293 287 291 289 289 288 281 283 285 282 284 285 290 289 288 284 282 285 281 279 298 296 290 293 298 299 296 294
305 305 306 306 306 306 305 295 304 306 298 295 299 300 301 301 300 294 291 290 292 293 288 288 288 285 284 283 277 293 282 288 287 284 282 291 297 295 297 296 295 296 295 295
305 305 305 305 306 306 304 297 300 298 293 292 293 294 300 304 302 301 291 290 295 294 297 291 287 282 284 278 281 285 289 293 289 291 293 295 298 299 300 298 296 298 298 296
304 305 305 305 305 306 306 298 300 298 294 289 290 301 298 304 302 301 299 299 300 297 294 288 289 285 286 282 284 283 287 289 287 288 292 294 299 299 298 298 299 298 297 297
304 305 305 305 306 306 305 303 303 303 296 288 288 294 297 298 302 301 300 299 296 293 290 287 285 286 285 285 285 283 288 286 284 283 294 294 295 298 298 295 295 296 296 296
304 305 305 306 306 306 300 295 303 302 303 293 285 293 295 298 302 301 299 299 297 294 291 290 292 293 289 283 280 288 292 297 298 293 297 296 298 296 296 295 297 300 298 295
305 305 306 306 305 298 296 295 301 306 303 292 287 287 298 301 301 300 298 297 295 292 291 289 289 290 292 286 283 288 291 293 296 297 296 294 295 292 295 296 297 297 294 293
305 306 305 305 305 302 297 300 305 304 296 293 286 286 292 301 295 294 297 292 293 292 291 291 288 287 289 284 287 291 294 296 297 298 297 295 295 292 293 295 294 292 291 291
305 305 305 302 300 296 299 307 305 302 297 289 289 287 286 299 296 295 293 293 287 293 288 288 289 285 284 287 288 293 297 296 296 297 296 292 291 292 293 292 292 290 290 290
305 302 297 292 296 305 303 297 293 292 292 292 287 288 287 295 292 286 290 291 288 284 287 291 285 282 290 291 294 296 297 298 296 294 293 289 290 291 292 292 291 291 289 288
299 294 292 297 303 296 292 288 287 288 286 289 289 288 287 295 289 290 292 287 288 283 286 286 287 283 293 298 296 297 298 298 297 294 292 290 291 291 291 291 291 290 289 287
298 296 298 297 293 290 286 284 288 287 283 288 287 287 289 291 293 288 291 288 287 281 291 288 284 291 297 297 297 296 295 295 293 293 292 292 293 293 292 291 290 290 289 288
298 294 290 289 287 282 281 280 284 285 287 290 289 287 288 289 290 286 284 283 282 291 287 285 289 291 296 295 295 294 293 294 293 292 292 293 292 293 291 290 292 291 289 288
291 288 283 284 283 284 286 288 288 292 292 292 292 290 288 287 285 285 282 286 288 285 284 285 287 293 294 295 295 294 292 292 292 292 293 292 292 292 291 291 292 290 288 288
289 289 283 286 290 294 294 294 293 295 292 291 291 290 288 285 286 288 287 285 285 286 284 288 292 292 294 293 293 292 292 292 292 292 291 292 292 291 289 290 290 290 289 287
291 289 286 288 290 291 289 293 293 293 293 292 291 288 286 286 286 286 285 286 284 286 291 290 293 293 292 291 294 294 295 292 291 292 292 292 291 290 289 289 289 290 289 286
290 288 289 289 290 290 291 295 294 294 290 287 288 285 285 288 284 284 289 286 288 292 289 293 293 291 290 293 294 295 294 293 292 292 292 291 292 291 290 287 288 290 289 288

GFSNW_sfc_thetae_111.txt.gz
Theta_e
310 309 307 308 308 306 305 297 291 311 312 297 297 296 302 303 304 307 303 302 300 297 296 294 295 296 298 302 302 294 294 290 286 289 294 297 292 290 290 285 284 283 280 282
307 307 308 308 308 307 302 294 294 308 311 294 296 300 302 305 302 302 301 299 299 299 295 291 295 296 301 302 301 296 295 287 281 281 289 292 291 291 293 290 290 288 286 285
307 307 308 308 307 306 303 295 293 302 305 302 297 298 299 299 305 302 301 298 298 295 293 293 293 294 299 302 301 304 298 287 283 278 283 288 286 289 290 288 283 287 287 288
307 307 308 308 307 306 303 295 297 299 294 298 297 297 298 298 297 301 299 295 296 294 289 290 289 292 294 300 302 296 291 284 286 288 290 290 288 288 288 286 289 284 285 288
306 307 307 307 307 306 302 296 297 300 297 300 297 295 294 296 296 296 294 293 294 293 289 289 287 289 289 290 294 290 290 283 285 284 289 288 287 288 288 288 289 288 288 288
305 306 306 306 307 305 300 302 303 297 296 296 296 295 294 296 295 296 297 295 293 292 292 293 292 291 292 291 291 288 287 285 281 279 286 285 280 284 286 288 289 288 284 288
305 306 306 306 307 306 302 303 302 295 290 295 294 296 297 296 295 293 296 295 292 296 297 293 291 288 290 291 290 291 286 283 281 279 280 274 284 292 292 291 294 294 294 295
305 306 307 306 307 306 301 302 302 298 288 293 295 296 296 294 295 294 294 296 297 296 291 285 283 284 286 288 289 289 289 283 282 278 278 282 287 293 292 289 289 296 293 294
305 306 306 307 307 306 297 301 305 300 294 291 295 296 295 289 290 292 293 297 297 294 288 285 280 279 285 287 288 291 291 290 282 284 276 274 285 295 299 295 283 295 296 293
305 306 306 306 306 306 300 299 305 300 293 294 295 293 293 294 291 288 290 292 292 292 284 280 280 281 288 281 283 285 285 286 283 284 282 284 291 296 299 281 282 294 296 294
305 306 306 306 306 306 302 297 302 302 296 294 298 298 296 296 291 286 290 289 290 287 280 281 281 281 282 284 290 290 287 285 283 286 282 280 296 295 287 290 293 296 296 294
305 305 306 306 306 307 304 294 304 304 298 296 298 299 301 300 298 292 290 290 290 290 284 285 287 286 282 281 277 293 283 286 281 283 282 289 295 295 296 295 294 295 294 295
304 305 305 305 305 306 303 297 300 297 291 290 292 292 298 301 301 301 291 290 294 294 294 290 285 281 283 276 280 283 287 291 287 287 290 293 295 296 297 296 297 296 296 296
304 305 305 306 306 306 306 298 298 296 292 288 289 299 296 303 300 299 297 295 296 295 294 290 288 285 286 281 282 282 285 287 285 286 288 292 295 297 297 299 298 297 297 295
304 305 305 306 306 306 303 302 301 302 296 288 287 292 296 298 300 300 298 295 293 290 288 286 286 284 283 283 283 281 286 284 281 281 288 290 291 296 297 295 294 294 293 294
305 305 306 306 306 305 299 294 302 304 303 293 285 291 293 298 300 298 296 296 296 292 287 289 288 289 286 282 278 285 288 292 295 290 294 295 295 297 297 293 294 295 293 292
306 306 306 306 305 296 295 295 300 305 303 293 286 286 298 301 298 299 298 297 291 291 291 290 289 289 290 287 282 286 289 293 293 293 294 292 294 291 294 294 294 294 292 292
305 305 305 306 305 302 292 301 304 303 296 294 285 287 292 300 295 293 297 293 292 290 290 290 287 287 287 283 286 288 293 293 295 295 297 296 294 293 293 293 292 290 290 290
305 306 306 302 299 296 299 307 304 302 296 288 288 286 285 298 295 295 293 294 287 293 288 289 290 287 283 285 287 290 294 294 294 296 295 292 292 293 292 291 289 288 288 288
305 301 297 292 296 305 303 297 293 292 292 292 286 289 285 293 290 286 290 290 286 284 287 291 286 285 289 290 291 292 294 297 295 293 290 291 290 290 289 289 289 289 288 287
299 293 291 297 302 296 292 288 287 288 286 289 289 289 285 296 290 289 290 285 286 282 282 285 286 284 288 297 295 294 298 295 293 293 290 289 290 290 289 289 290 289 288 286
296 296 298 297 293 290 286 284 287 286 282 286 285 286 287 293 293 286 290 286 287 281 289 286 284 291 296 296 295 293 294 294 293 293 291 291 291 290 289 289 289 289 288 288
298 294 290 289 287 280 281 280 283 285 286 289 288 285 290 289 290 286 285 283 282 290 286 284 288 292 296 293 293 293 293 292 291 291 291 291 290 290 289 289 291 289 287 287
292 288 283 284 282 284 285 286 289 293 293 292 291 288 287 285 284 282 279 283 285 283 282 285 287 291 294 294 294 293 290 290 290 290 290 290 290 289 289 290 291 288 286 286
289 289 282 285 289 290 289 291 292 294 294 293 291 290 288 284 285 285 286 285 283 284 285 287 290 291 293 292 291 290 290 289 289 290 290 290 290 288 288 289 290 289 287 285
290 289 285 286 288 289 289 293 293 295 294 294 292 286 284 284 284 285 284 285 284 285 288 290 291 292 292 290 292 292 292 290 289 289 290 290 290 288 288 289 290 288 286 285
289 285 291 289 289 289 291 294 295 295 291 288 289 285 284 287 284 285 288 285 288 290 288 292 292 289 290 292 293 293 292 291 291 291 291 290 290 290 287 286 287 289 287 287

GFSNW_sfc_thetae_114.txt.gz
Theta_e
307 307 307 308 308 306 304 298 288 307 307 297 295 292 299 301 304 306 303 302 299 298 295 294 294 294 296 301 299 293 293 289 286 289 293 296 291 289 289 283 282 281 280 281
307 307 307 307 307 306 300 293 294 305 310 292 292 298 300 303 302 302 300 298 300 299 295 292 295 295 299 301 300 295 295 287 281 281 288 292 289 290 290 288 286 283 283 284
307 307 306 306 306 306 301 295 289 301 304 302 297 296 297 298 305 303 302 298 298 295 293 295 294 294 300 302 301 304 300 289 284 280 282 287 286 288 288 286 281 282 284 286
306 306 306 306 306 306 301 296 294 299 293 297 298 297 296 296 296 301 301 296 296 293 289 290 290 293 296 298 301 296 292 285 285 286 289 289 287 287 287 285 285 282 284 287
306 306 306 306 306 306 300 295 296 299 296 298 298 296 294 296 296 295 294 293 294 293 289 290 288 290 291 291 294 291 290 284 284 283 288 287 286 287 287 287 287 286 287 287
306 306 307 307 306 305 299 299 304 298 295 295 295 294 294 293 297 297 298 296 293 291 291 292 292 292 291 293 292 288 287 285 282 280 285 284 280 284 286 286 288 287 283 287
306 306 307 307 307 305 301 300 300 296 290 294 293 295 295 293 294 292 296 296 292 295 296 293 292 291 291 292 290 291 285 283 281 278 280 274 282 290 291 288 291 292 293 293
305 306 307 307 307 306 299 300 299 296 289 292 294 295 292 295 295 294 294 295 295 295 291 285 282 284 286 287 289 289 288 282 281 274 276 281 285 291 290 288 288 295 293 294
305 306 306 306 306 307 297 299 304 300 293 290 295 294 295 290 291 293 294 296 296 294 288 285 279 279 284 285 287 291 289 286 279 282 279 273 284 293 298 294 283 295 295 293
305 306 306 306 306 306 301 299 303 299 292 293 296 293 291 294 290 289 292 292 291 291 285 280 280 281 287 282 282 284 285 282 280 284 281 284 289 294 298 280 282 294 295 295
305 306 306 306 307 307 303 298 302 300 295 295 299 299 296 295 291 288 289 289 290 286 280 282 281 281 281 282 289 288 285 283 284 285 282 278 295 294 288 289 291 295 295 296
305 305 306 306 306 306 303 294 303 302 297 294 297 300 301 300 300 293 290 288 289 288 283 282 283 280 281 281 277 291 286 285 282 284 283 289 294 292 295 294 294 295 294 295
305 305 306 306 306 306 304 297 298 296 290 289 290 292 298 301 300 300 289 289 293 292 291 286 284 280 282 276 280 283 286 290 289 286 288 290 293 295 297 296 295 296 296 295
305 305 306 306 307 306 306 298 300 299 291 287 288 298 295 300 299 298 297 295 295 293 291 286 284 279 284 280 281 281 285 285 284 285 287 289 292 294 296 296 297 297 296 295
306 306 306 306 306 306 301 301 302 302 296 288 287 291 295 298 297 297 297 295 292 289 286 285 282 284 283 281 281 279 285 283 281 280 286 287 289 294 296 295 294 294 293 293
306 306 306 306 306 304 297 294 301 303 302 292 284 290 293 300 300 298 297 295 292 290 286 286 287 290 286 282 279 284 286 289 288 287 291 293 293 295 296 294 294 294 292 291
306 305 306 305 305 295 291 294 299 304 303 292 286 286 298 301 300 298 297 296 293 290 290 288 289 289 290 287 281 285 288 289 291 294 292 292 292 291 292 294 294 294 292 291
305 305 306 305 304 299 291 298 302 304 296 293 285 286 292 300 295 293 297 293 292 289 289 288 285 287 286 282 285 287 291 294 293 294 294 293 296 294 294 293 292 290 289 288
305 306 305 302 299 296 299 306 304 301 296 288 287 285 284 297 294 294 293 293 286 292 287 288 289 287 282 284 285 288 292 293 295 295 295 292 290 291 291 290 289 287 287 287
305 301 295 291 296 304 303 297 293 292 292 292 285 286 287 293 289 287 290 291 286 281 286 291 286 283 287 289 290 290 293 297 297 293 289 291 290 290 290 289 289 288 287 287
299 293 291 297 302 296 292 288 287 288 285 289 289 286 287 295 290 287 290 284 285 278 281 283 283 284 288 297 293 295 294 297 294 292 291 290 290 289 289 288 289 288 287 286
294 296 298 297 293 289 285 284 287 285 283 286 285 286 288 293 293 287 290 283 285 281 288 285 283 289 295 293 290 291 293 291 291 292 290 290 289 288 288 288 288 287 287 286
297 294 290 288 287 280 281 280 283 283 287 288 286 282 288 288 288 285 286 283 282 289 286 284 286 293 294 292 292 291 291 291 290 290 290 290 288 288 288 288 289 287 286 285
291 288 283 283 282 284 285 285 288 292 293 293 292 287 286 284 283 281 279 282 284 283 280 284 289 293 293 293 292 290 289 289 289 289 289 289 287 287 289 289 289 287 286 284
289 288 281 283 288 290 288 290 290 294 294 292 288 289 289 282 283 283 282 283 281 282 284 288 291 292 292 290 290 289 288 288 288 288 288 288 288 288 288 290 288 287 286 284
290 288 284 287 288 288 290 292 292 295 293 294 292 286 284 283 283 284 284 283 282 285 289 289 290 292 289 289 290 290 290 289 288 288 289 290 288 287 287 289 289 286 286 284
288 283 289 289 288 288 292 292 295 295 293 289 289 284 284 287 284 284 287 285 287 288 288 291 290 288 289 290 291 292 291 290 290 289 289 289 289 288 287 285 287 287 286 285

GFSNW_sfc_thetae_117.txt.gz
Theta_e
306 307 307 307 306 305 304 297 289 307 308 296 298 295 299 300 301 306 302 301 298 298 299 296 296 295 299 303 302 297 299 298 293 294 298 300 298 297 298 294 291 292 292 292
305 306 306 306 306 305 301 293 293 305 306 293 295 300 299 301 301 302 299 298 298 300 296 295 298 298 302 303 302 299 300 294 288 289 295 298 296 297 298 298 297 293 290 293
305 306 306 306 306 305 302 295 289 300 303 303 298 297 297 298 304 302 302 298 301 296 295 298 295 297 301 303 304 305 304 294 292 289 291 295 292 294 297 296 292 292 293 295
306 306 306 307 306 305 302 296 293 298 291 295 291 298 297 296 296 302 301 297 297 294 290 293 292 297 298 300 301 298 301 293 293 292 293 293 293 293 293 292 293 290 292 293
306 306 306 307 306 305 300 294 293 297 295 297 293 295 293 295 295 297 295 293 297 296 293 295 291 294 297 297 299 297 297 291 293 289 291 291 289 292 292 292 292 292 293 292
306 307 307 307 307 305 298 300 302 297 295 294 290 292 291 294 298 297 298 297 294 293 293 296 296 298 299 300 298 295 295 293 291 286 289 288 285 289 291 292 294 293 289 294
306 307 307 307 307 306 302 300 298 293 290 293 291 295 295 294 295 296 297 298 295 296 299 299 299 298 298 298 296 299 293 292 290 285 287 279 288 294 294 293 293 295 296 298
306 306 307 307 307 307 303 302 297 295 290 293 293 294 293 296 297 295 294 296 297 299 296 291 290 290 290 292 294 295 296 293 285 284 283 287 290 294 295 294 294 300 299 300
305 306 307 307 307 307 304 301 303 299 292 292 294 294 295 292 292 293 295 299 300 299 293 290 283 284 287 286 288 295 294 294 289 285 282 281 289 297 301 300 290 301 301 300
305 306 306 307 307 307 305 301 302 299 294 296 297 293 294 296 293 291 293 295 295 296 291 288 286 285 291 286 284 286 289 290 286 286 284 288 295 298 301 287 291 301 302 302
305 306 306 306 307 307 305 301 304 299 295 297 300 299 295 297 294 291 293 292 295 292 289 289 289 289 289 290 291 288 287 285 285 287 284 282 300 299 293 298 301 302 302 303
305 306 306 307 307 307 306 300 304 304 297 297 300 300 302 301 302 297 296 294 294 294 291 292 292 289 290 289 286 295 289 293 290 292 291 297 301 300 303 302 302 302 302 303
305 305 306 307 307 307 306 302 301 302 296 295 296 296 301 304 303 305 295 297 298 297 297 294 292 288 291 288 289 290 292 296 294 294 296 297 299 302 303 303 303 304 303 303
306 306 306 306 307 306 305 302 304 301 296 290 292 301 298 302 303 302 302 300 300 299 298 294 292 290 292 290 289 290 292 293 292 294 295 296 299 299 302 303 303 302 303 302
306 306 307 307 307 305 303 304 304 303 297 290 293 297 299 304 301 301 302 300 299 296 294 293 289 291 291 291 291 289 293 291 290 290 294 295 296 299 301 301 301 301 300 299
306 306 306 306 306 304 302 296 303 304 304 294 288 296 299 301 302 301 300 299 299 297 294 291 294 294 292 287 285 290 292 294 294 294 297 297 299 301 302 300 299 299 298 297
306 306 306 306 306 303 298 295 301 304 305 295 290 291 297 302 302 301 299 299 297 296 294 293 293 293 294 290 285 291 293 294 296 298 298 296 299 298 298 299 298 297 296 295
306 306 306 306 304 301 300 303 305 306 299 296 288 288 292 300 296 292 299 296 295 295 292 294 292 293 292 285 291 293 295 296 297 299 300 299 300 298 297 298 297 295 293 293
306 305 305 303 300 296 298 306 305 304 300 290 289 287 286 298 294 295 294 296 289 294 290 290 291 288 285 290 292 294 295 297 297 299 299 297 296 296 296 295 294 292 291 291
305 303 298 292 297 304 304 300 295 295 294 294 288 292 289 293 291 289 291 292 287 285 289 292 288 288 292 293 297 297 297 297 300 297 296 296 294 294 294 293 293 292 291 290
300 296 293 299 303 300 294 289 288 290 287 291 291 292 289 296 290 289 292 288 288 284 287 287 285 285 292 297 298 299 299 298 296 297 296 295 294 292 292 291 292 291 290 288
298 297 299 298 294 291 286 285 288 287 285 290 289 291 292 295 296 292 291 288 288 282 290 285 284 291 295 295 295 296 296 296 295 296 294 293 292 292 291 291 291 289 288 287
300 295 291 289 289 282 282 281 284 285 289 291 291 291 292 295 295 292 288 284 284 292 287 285 290 293 294 294 295 295 295 295 293 292 294 292 291 292 292 290 288 288 286 286
292 289 283 284 284 286 287 288 288 292 292 291 292 290 292 292 291 290 284 288 288 283 282 283 290 293 295 295 295 294 292 292 292 292 292 291 291 290 291 289 288 287 285 285
290 289 282 286 289 290 291 291 290 293 295 293 288 290 291 290 287 289 287 283 281 283 285 288 294 296 295 294 293 292 292 292 292 292 291 290 290 289 290 288 288 287 285 284
291 289 286 290 288 289 291 292 292 296 295 294 293 288 286 286 288 285 284 284 283 286 291 295 296 295 294 294 293 293 293 293 292 292 292 290 289 288 288 289 287 287 285 283
288 288 292 291 290 289 292 294 295 297 294 289 290 285 285 289 286 285 288 285 289 294 294 295 296 295 294 295 294 294 294 293 292 291 291 289 290 289 288 286 287 286 285 284

GFSNW_sfc_thetae_123.txt.gz
Theta_e
307 307 307 307 307 305 304 300 292 310 309 293 292 292 295 296 298 300 301 302 296 298 301 300 298 297 300 303 302 299 304 301 295 298 304 306 304 302 302 296 295 298 297 295
307 307 307 307 307 306 304 296 299 309 305 289 288 293 297 300 298 297 299 300 300 301 296 295 301 302 305 304 302 301 305 300 293 296 300 304 302 303 304 303 303 298 295 297
307 307 307 307 307 306 305 298 292 301 297 296 289 291 295 298 303 298 302 300 301 297 294 298 300 299 305 305 303 311 308 301 299 293 297 301 299 301 302 301 297 298 298 301
307 307 307 307 307 306 305 300 293 296 292 293 294 294 294 293 297 303 301 299 299 296 292 297 298 303 304 303 307 305 305 297 298 299 301 301 298 300 301 301 302 297 299 299
307 307 307 307 307 306 305 298 293 294 293 297 294 293 291 290 298 296 294 295 296 293 289 297 297 303 303 302 305 304 307 298 300 296 302 302 299 301 302 302 302 302 301 299
307 307 307 308 307 306 302 304 303 294 293 295 290 288 289 294 299 299 300 299 295 290 290 301 305 309 308 308 304 303 303 301 298 292 299 298 294 299 301 302 303 301 296 301
307 307 307 308 308 307 308 305 300 292 289 292 291 292 293 293 298 296 298 300 299 299 306 304 305 305 307 307 306 307 303 301 301 294 297 288 298 301 302 301 300 301 301 303
307 307 308 308 308 308 307 309 302 295 289 293 293 293 293 292 294 295 298 299 303 307 303 296 291 293 297 298 302 305 307 301 298 293 292 294 295 298 297 297 297 302 301 302
307 307 308 308 308 308 308 309 308 300 293 293 295 293 295 290 290 292 298 304 307 307 300 294 287 286 290 289 293 303 302 304 299 296 289 285 297 302 305 305 295 304 304 306
307 307 308 308 309 308 307 307 312 304 297 300 299 293 292 298 295 293 299 301 303 306 298 293 289 289 295 289 290 295 297 297 294 293 293 296 303 303 305 293 298 307 307 307
307 307 308 308 309 308 307 307 312 304 298 300 302 300 297 299 299 294 301 301 301 301 297 295 295 293 294 293 295 295 294 293 293 294 291 288 305 303 298 305 308 309 307 308
307 308 308 308 308 308 307 302 309 309 303 302 308 308 308 306 304 300 304 302 302 303 300 300 300 295 298 296 290 299 292 297 296 299 299 306 309 308 310 309 307 306 306 306
307 307 308 308 308 307 307 307 308 306 300 301 302 302 309 312 310 312 299 304 307 305 308 301 300 296 301 295 295 296 300 303 299 300 303 304 304 307 308 308 306 306 307 308
307 307 308 307 307 307 306 307 308 306 302 297 299 309 307 312 312 311 311 309 310 309 306 302 300 296 302 298 299 296 300 301 298 300 302 303 304 304 305 306 307 306 307 307
306 307 307 307 307 307 308 310 310 310 300 295 298 304 309 310 310 308 309 309 307 304 301 300 297 300 301 299 301 296 301 299 298 295 302 303 302 304 305 304 305 306 305 305
306 307 307 307 307 307 306 305 311 310 310 301 293 304 303 307 308 307 306 307 306 304 302 300 300 302 301 298 293 299 300 302 303 301 303 302 304 304 306 304 304 305 305 304
306 306 306 307 307 307 300 299 304 307 310 300 294 296 302 306 307 309 306 307 304 303 301 298 299 299 301 298 292 298 301 302 303 304 303 301 303 301 304 303 304 304 304 304
306 306 307 307 306 306 305 309 307 307 304 299 295 297 297 302 299 301 307 300 301 301 297 299 297 301 301 291 296 299 300 302 302 302 303 303 304 305 302 302 303 302 301 300
305 306 307 308 306 303 304 307 307 310 303 293 295 292 289 304 301 302 303 302 295 303 295 297 298 295 291 294 296 298 300 300 300 301 302 303 300 301 300 300 299 298 299 299
305 307 301 296 304 306 308 305 302 300 298 299 294 299 294 297 297 299 296 299 295 289 296 301 293 295 299 300 302 302 303 303 302 299 298 299 298 298 298 298 298 298 297 296
303 299 299 305 307 305 300 294 293 296 292 295 295 299 294 303 296 296 300 294 296 289 293 293 292 292 298 300 300 300 301 301 301 300 300 299 298 297 297 297 297 295 293 291
302 301 304 305 299 296 292 291 293 291 289 295 294 295 297 302 304 297 297 292 295 287 298 293 288 295 299 298 298 300 299 298 298 299 298 298 299 298 295 293 292 291 291 290
305 300 296 296 297 289 288 287 290 291 293 296 295 295 301 301 300 296 294 288 289 298 290 290 293 298 298 299 298 297 299 299 298 297 298 298 297 295 293 290 290 290 288 288
296 292 289 291 290 291 290 290 291 295 294 296 298 296 296 298 297 298 289 292 294 287 288 288 295 298 299 298 298 297 296 298 297 297 297 296 293 290 290 289 289 288 286 286
293 293 288 291 293 292 293 296 295 296 297 295 294 298 299 294 293 295 292 288 286 290 288 291 298 299 298 297 297 297 296 297 297 297 296 296 292 290 288 289 288 287 286 285
296 294 292 298 295 294 294 294 292 298 297 298 297 294 292 290 292 289 287 287 285 289 293 298 299 298 298 298 298 297 297 297 297 296 296 295 291 289 288 288 287 286 285 283
292 293 298 300 300 296 299 300 298 299 295 292 295 289 288 294 289 287 292 287 291 295 298 299 300 299 298 299 298 298 297 297 297 296 296 295 293 290 288 285 285 285 285 285